Regional Weather Roundup
Issued by NWS

Home | Current Version | Previous Version | Graphics & Text | Print | Product List | Glossary On
Versions: 1 2 3 4 5 6 7 8 9 10 11 12 13 14 15 16 17 18 19 20 21 22 23 24 25 26 27 28 29 30 31 32 33 34 35 36 37 38 39 40 41 42 43 44 45 46 47 48 49 50
000
ASUS45 KABQ 191210
RWRNM
WEATHER ROUNDUP FOR NEW MEXICO
NATIONAL WEATHER SERVICE ALBUQUERQUE NM
500 AM MST FRI DEC 19 2014

NOTE: "FAIR" MEANS FEW OR NO CLOUDS BELOW 12,000 FEET AGL WITH NO
       SIGNIFICANT WEATHER OR OBSTRUCTIONS TO VISION.

      THIS PRODUCT IS RELEASED AS TWO VERSIONS.  ONE VERSION NEAR
      THE TOP OF THE HOUR CONTAINING PRELIMINARY DATA FROM ALBUQUERQUE
      AND OTHER STATIONS.  A FINAL VERSION WITH ADDITIONAL DATA IS
      ISSUED ABOUT 10 MINUTES AFTER THE HOUR.

NMZ501-503-504-510>518-191300-
NORTHWEST PLATEAU/NORTHCENTRAL MOUNTAINS

CITY           SKY/WX    TMP DP  RH WIND       PRES   REMARKS
FARMINGTON     CLOUDY    25  23  92 CALM      30.18R
6HR MIN TEMP:  23; 6HR MAX TEMP:  29;

LOS ALAMOS     CLEAR     26  19  74 CALM      30.12S
SANTA FE       CLEAR     25  21  85 NW6       30.11S WCI  18
6HR MIN TEMP:  24; 6HR MAX TEMP:  31;

TAOS           CLOUDY    19  16  86 N5        30.13S WCI  13
ANGEL FIRE     PTSUNNY    7   4  89 CALM      30.10S

$$
NMZ402-403-502-505>509-191300-
WESTCENTRAL MOUNTAINS/SOUTHWEST MOUNTAINS

CITY           SKY/WX    TMP DP  RH WIND       PRES   REMARKS
GALLUP         HAZE      22  17  81 CALM      30.20S VSB 1/4
6HR MIN TEMP:  21; 6HR MAX TEMP:  25;

GRANTS         CLOUDY    24  23  95 N5        30.20S WCI  18
SILVER CITY    PTCLDY    30  28  93 NW7       30.17S WCI  23

$$
NMZ407-409-411-412-191300-
SOUTHERN DESERTS

CITY           SKY/WX    TMP DP  RH WIND       PRES   REMARKS
LORDSBURG      FOG       32  32 100 NW5       30.18S VSB 1/4 WCI  27
DEMING         FOG       28  28 100 SW5       30.16F VSB 3/4 WCI  23
6HR MIN TEMP:  28; 6HR MAX TEMP:  36;

LAS CRUCES     CLOUDY    33  33  98 W3        30.16S
HOLLOMAN AFB   PTCLDY    36  36  99 N7        30.13R WCI  30
ALAMOGORDO     CLEAR     39  36  87 N9        30.13S WCI  33
T OR C         CLEAR     34  27  75 NW6       30.14S WCI  29
6HR MIN TEMP:  32; 6HR MAX TEMP:  40;


$$
NMZ519>523-191300-
CENTRAL VALLEYS/CENTRAL HIGHLANDS

CITY           SKY/WX    TMP DP  RH WIND       PRES   REMARKS
ALBUQUERQUE    CLEAR     33  26  75 N6        30.17S WCI  28
6HR MIN TEMP:  31; 6HR MAX TEMP:  36;

MORIARTY ARPT  FAIR      25  20  83 CALM      30.12S
6HR MIN TEMP:  20; 6HR MAX TEMP:  31;

CLINES CORNERS CLEAR     24  21  88 NW20      30.05S WCI  10
6HR MIN TEMP:  24; 6HR MAX TEMP:  28;

BELEN          FAIR      23  22  94 N3        30.17S
6HR MIN TEMP:  23; 6HR MAX TEMP:  31;

SOCORRO        FAIR      28  27  97 NW6       30.16F WCI  22
6HR MIN TEMP:  27; 6HR MAX TEMP:  33;


$$
NMZ524>526-539-540-191300-
SOUTHCENTRAL MOUNTAINS

CITY           SKY/WX    TMP DP  RH WIND       PRES   REMARKS
RUIDOSO        CLEAR     28  23  80 NW10G17   30.13S WCI  19

$$
NMZ527>531-191300-
NORTHEAST HIGHLANDS/NORTHEAST PLAINS

CITY           SKY/WX    TMP DP  RH WIND       PRES   REMARKS
LAS VEGAS      CLEAR     23  16  74 N6        30.07R WCI  16
6HR MIN TEMP:  18; 6HR MAX TEMP:  26;

RATON          CLEAR     22  20  92 N6        30.06S WCI  14
6HR MIN TEMP:  20; 6HR MAX TEMP:  31;

CLAYTON        MOCLDY    28  25  88 SW5       30.06F WCI  23
6HR MIN TEMP:  28; 6HR MAX TEMP:  31;


$$
NMZ532>537-191300-
EASTCENTRAL PLAINS

CITY           SKY/WX    TMP DP  RH WIND       PRES   REMARKS
TUCUMCARI      CLOUDY    35  31  85 N8        30.09R WCI  29
6HR MIN TEMP:  28; 6HR MAX TEMP:  38;

CANNON AFB     CLOUDY    36  35  97 S10       30.09R FOG     WCI  28
6HR MIN TEMP:  35; 6HR MAX TEMP:  36;

CLOVIS AIRPORT CLOUDY    36  34  93 S9        30.08F WCI  29

$$
NMZ028-029-538-191300-
SOUTHEAST PLAINS

CITY           SKY/WX    TMP DP  RH WIND       PRES   REMARKS
ROSWELL        MOCLDY    40  34  79 NW3       30.10S
6HR MIN TEMP:  37; 6HR MAX TEMP:  44;

ARTESIA        CLEAR     36  34  93 W8        30.11S WCI  29
CARLSBAD       CLEAR     40  33  76 W8        30.08S WCI  34
6HR MIN TEMP:  40; 6HR MAX TEMP:  51;

HOBBS          FOG       34  34 100 CALM      30.10S VSB 1/4


$$



USA.gov is the U.S. government's official web portal to all federal, state and local government web resources and services.